Skip Navigation Links weather.gov 
NOAA logo-Select to go to the NOAA homepage NDBC Title GraphicClick to go to NDBC home page   Select to go to the NWS homepage
Home About Us Contact Us
 
 
    
    Station List

 Data Access
    Mobile Access
    Classic Maps
         Recent
         DART®
    Obs Search
    Ship Obs Report
    BuoyCAMs
    TAO
    DODS
    OceanSITES
    HF Radar
    OSMC
    Dial-A-Buoy
    RSS Feeds Image indicating link to RSS feed access page
    Web Widget
    Email Access
    Web Data Guide
    Maintenance Schedule
    Station Status Report

 Program Info
    TAO
    DART®
    IOOS®

 Publications
    NDBC PEA
    NDBC FONSI
    NDBC DQC Handbook

 FAQ
 Visitor Information
 
USA.gov is the U.S. government's official web portal to all federal, state and local government web resources and services.

Hurricane Symbol Storm Special! View the latest observations near East Pacific Tropical Storm Tara.

Station PSBC1 - 9415115 - Pittsburg (Suisun Bay), CA Image indicating link to RSS feed of recent meteorological observations for station PSBC1

Owned and maintained by NOAA's National Ocean Service
C-MAN Station
38.040 N 121.887 W (38°2'23" N 121°53'12" W)

Site elevation: 0 m above mean sea level
Air temp height: 3.4 m above site elevation
Anemometer height: 7.6 m above site elevation

Search And Rescue (SAR) Data

Meteorological Observations from Nearby Stations and Ships Image indicating link to RSS feed of recent meteorological observations near station PSBC1

Regional HF Radar Surface Current Observations

Large icon indicates selected station.
yellow diamond Stations with recent data
red diamond Stations with no data in last 8 hours
     (24 hours for tsunami stations)


Conditions at PSBC1 as of
(7:18 am PDT)
1418 GMT on 10/15/2018:
     

Click on the graph icon in the table below to see a time series plot of the last five days of that observation.

5-day plot - Wind Direction Wind Direction (WDIR): N ( 10 deg true )
5-day plot - Wind Speed Wind Speed (WSPD): 5 kts
5-day plot - Wind Gust Wind Gust (GST): 8 kts
5-day plot - Atmospheric Pressure Atmospheric Pressure (PRES): 30.13 in
5-day plot - Air Temperature Air Temperature (ATMP): 62.6 °F
5-day plot - Wind Speed at 10 Meters Wind Speed at 10 meters (WSPD10M): 6 kts
5-day plot - Wind Speed at 10 Meters Wind Speed at 20 meters (WSPD20M): 6 kts
5-day plot - Wind Speed, Wind Gust and Atmospheric Pressure Combined plot of Wind Speed, Gust, and Air Pressure
NOS Water Level Observation Network Water Level
Previous observations
5-day plot - Wind Direction 5-day plot - Wind Speed 5-day plot - Wind Gust 5-day plot - Wave Height 5-day plot - Dominant Wave Period 5-day plot - Average Period 5-day plot - Mean Wave Direction 5-day plot - Atmospheric Pressure 5-day plot - Pressure Tendency 5-day plot - Air Temperature 5-day plot - Water Temperature 5-day plot - Dew Point 5-day plot - Salinity 5-day plot - Visibility 5-day plot - Tide (above MLLW)
MM DD TIME
(PDT)
WDIR WSPD
kts
GST
kts
WVHT
ft
DPD
sec
APD
sec
MWD PRES
in
PTDY
in
ATMP
°F
WTMP
°F
DEWP
°F
SAL
psu
VIS
nmi
TIDE
ft
1015 7:12 am N 4 8----30.12- 62.6-----
1015 7:06 am N 7 12----30.12- 62.8-----
1015 7:00 am N 9 12----30.11+0.06 63.1-----
1015 6:54 am N 12 16----30.11- 63.3-----
1015 6:48 am N 12 15----30.11- 63.1-----
1015 6:42 am N 14 17----30.10- 63.3-----
1015 6:36 amNNE 16 23----30.10- 63.9-----
1015 6:30 amNNE 16 22----30.09- 63.9-----
1015 6:24 amNNE 17 21----30.09- 64.0-----
1015 6:18 amNNE 18 23----30.09- 63.9-----
1015 6:12 amNNE 18 22----30.09- 63.9-----
1015 6:06 amNNE 19 24----30.08- 64.2-----
1015 6:00 amNNE 20 25----30.08+0.02 63.9-----
1015 5:54 amNNE 19 23----30.08- 63.7-----
1015 5:48 amNNE 19 24----30.08- 63.7-----
1015 5:42 amNNE 18 23----30.08- 63.5-----
1015 5:36 amNNE 18 22----30.08- 63.5-----
1015 5:30 amNNE 16 20----30.08- 63.3-----
1015 5:24 am NE 14 19----30.08- 63.1-----
1015 5:18 amNNE 13 17----30.08- 63.1-----
1015 5:12 amNNE 14 18----30.08- 63.1-----
1015 5:06 amNNE 16 19----30.08- 63.1-----
1015 5:00 amNNE 17 21----30.07+0.04 63.3-----
1015 4:54 amNNE 18 22----30.07- 63.1-----
1015 4:48 amNNE 19 24----30.06- 63.1-----
1015 4:42 amNNE 19 24----30.06- 63.0-----
1015 4:36 amNNE 19 25----30.06- 63.1-----
1015 4:30 amNNE 20 24----30.06- 63.3-----
1015 4:24 amNNE 20 25----30.06- 63.3-----
1015 4:18 amNNE 20 25----30.06- 63.5-----
1015 4:12 amNNE 16 21----30.06- 63.1-----
1015 4:06 amNNE 15 19----30.06- 63.1-----
1015 4:00 amNNE 17 23----30.06+0.04 63.1-----
1015 3:54 amNNE 15 19----30.06- 63.0-----
1015 3:48 amNNE 13 16----30.06- 63.1-----
1015 3:42 amNNE 9 14----30.06- 63.0-----
1015 3:36 amNNE 13 18----30.06- 63.3-----
1015 3:30 amNNE 11 16----30.06- 63.1-----
1015 3:24 amNNE 13 18----30.06- 63.5-----
1015 3:18 amNNE 15 19----30.06- 63.5-----
1015 3:12 amNNE 13 18----30.06- 63.5-----
1015 3:06 amNNE 13 15----30.06- 63.5-----
1015 3:00 amNNE 12 16----30.06+0.05 63.3-----
1015 2:54 amNNE 13 18----30.06- 63.7-----
1015 2:48 amNNE 16 20----30.05- 63.9-----
1015 2:42 amNNE 12 17----30.06- 63.9-----
1015 2:36 amNNE 14 18----30.05- 64.0-----
1015 2:30 amNNE 12 15----30.05- 63.7-----
1015 2:24 amNNE 13 17----30.05- 63.5-----
1015 2:18 amNNE 12 16----30.05- 63.5-----
1015 2:12 amNNE 14 17----30.04- 63.7-----
1015 2:06 amNNE 17 21----30.03- 63.9-----
1015 2:00 amNNE 17 21----30.03+0.05 64.0-----
1015 1:54 amNNE 18 23----30.03- 64.2-----
1015 1:48 amNNE 16 21----30.03- 64.2-----
1015 1:42 amNNE 16 21----30.03- 64.2-----
1015 1:36 amNNE 18 22----30.03- 64.4-----
1015 1:30 amNNE 17 20----30.03- 64.2-----
1015 1:24 am NE 17 22----30.02- 64.6-----
1015 1:18 am NE 18 23----30.02- 64.9-----
1015 1:12 amNNE 17 22----30.02- 65.1-----
1015 1:06 amNNE 16 20----30.02- 64.9-----
1015 1:00 amNNE 16 20----30.01+0.05 64.8-----
101512:54 am NE 15 19----30.02- 64.8-----
101512:48 am NE 15 19----30.01- 64.6-----
101512:42 amNNE 18 22----30.01- 65.3-----
101512:36 amNNE 18 22----30.01- 66.2-----
101512:30 amNNE 13 17----30.01- 66.0-----
101512:24 amNNE 13 17----30.01- 66.0-----
101512:18 amNNE 14 20----30.01- 66.4-----
101512:12 amNNE 15 20----30.01- 66.4-----
101512:06 amNNE 14 19----30.01- 66.2-----
101512:00 amNNE 14 21----30.01+0.08 66.0-----
101411:54 pmNNE 14 20----30.00- 66.2-----
101411:48 pmNNE 17 21----30.00- 66.4-----
101411:42 pmNNE 15 21----30.00- 66.2-----
101411:36 pmNNE 16 20----29.99- 66.2-----
101411:30 pmNNE 16 22----29.99- 66.2-----
101411:24 pmNNE 16 22----29.99- 66.4-----
101411:18 pmNNE 16 21----29.99- 66.2-----
101411:12 pmNNE 16 23----29.99- 66.2-----
101411:06 pmNNE 16 22----29.98- 66.4-----
101411:00 pmNNE 17 21----29.98+0.06 66.7-----
101410:54 pmNNE 16 22----29.98- 66.7-----
101410:48 pmNNE 15 21----29.98-------
101410:42 pmNNE 16 22----29.98-------
101410:36 pmNNE 18 23----29.97-------
101410:30 pmNNE 14 17----29.98- 67.1-----
101410:24 pmNNE 13 16----29.97- 66.9-----
101410:18 pmNNE 14 18----29.97- 67.3-----
101410:12 pmNNE 15 19----29.97- 67.8-----
101410:06 pmNNE 16 19----29.96- 68.0-----
101410:00 pmNNE 16 20----29.96+0.04 68.2-----
1014 9:54 pmNNE 17 22----29.96- 68.5-----
1014 9:48 pmNNE 18 22----29.95- 69.1-----
1014 9:42 pmNNE 18 23----29.95- 69.3-----
1014 9:36 pmNNE 15 21----29.95- 69.4-----
1014 9:30 pmNNE 17 22----29.95- 70.0-----
1014 9:24 pmNNE 18 21----29.95- 70.3-----
1014 9:18 pmNNE 18 23----29.94- 70.9-----
1014 9:12 pmNNE 18 24----29.94- 70.9-----
1014 9:06 pmNNE 19 25----29.94- 71.2-----
1014 9:00 pmNNE 21 26----29.93+0.02 71.2-----
1014 8:54 pmNNE 20 26----29.92- 71.6-----
1014 8:48 pmNNE 22 28----29.92- 71.8-----
1014 8:42 pmNNE 18 23----29.92- 72.0-----
1014 8:36 pmNNE 18 23----29.92- 72.1-----
1014 8:30 pmNNE 17 20----29.93- 72.5-----
1014 8:24 pm N 16 20----29.93- 72.7-----
1014 8:18 pm N 15 20----29.93- 72.9-----
1014 8:12 pmNNE 16 23----29.93- 73.0-----
1014 8:06 pm N 18 24----29.93- 73.4-----
1014 8:00 pm N 17 21----29.93+0.01 73.8-----
1014 7:54 pm N 15 19----29.93- 73.8-----
1014 7:48 pm N 14 18----29.93- 73.4-----
1014 7:42 pm N 12 17----29.93- 73.2-----
1014 7:36 pm N 14 17----29.93- 73.4-----
1014 7:30 pm N 14 18----29.93- 73.6-----
1014 7:24 pm N 12 16----29.93- 73.2-----
1014 7:18 pm N 11 14----29.93- 73.0-----
1014 7:12 pm N 12 15----29.93- 73.4-----
1014 7:06 pm N 14 19----29.93- 73.6-----
1014 7:00 pm N 13 16----29.92+0.00 73.4-----
1014 6:54 pm N 13 17----29.92- 73.6-----
1014 6:48 pmNNE 14 22----29.92- 73.8-----
1014 6:42 pm N 16 21----29.92- 74.1-----
1014 6:36 pmNNE 13 17----29.92- 73.9-----
1014 6:30 pmNNE 14 19----29.92- 74.5-----
1014 6:24 pmNNE 15 20----29.91- 75.2-----
1014 6:18 pmNNE 14 20----29.92- 74.8-----
1014 6:12 pmNNE 15 23----29.91- 75.4-----
1014 6:06 pmNNE 18 21----29.91- 76.1-----
1014 6:00 pmNNE 19 25----29.91-0.01 76.3-----
1014 5:54 pmNNE 19 25----29.91- 76.5-----
1014 5:48 pmNNE 20 26----29.91- 76.5-----
1014 5:42 pmNNE 13 18----29.91- 76.3-----
1014 5:36 pmNNE 15 20----29.91- 76.8-----
1014 5:30 pmNNE 13 18----29.91- 77.4-----
1014 5:24 pm N 14 18----29.91- 77.5-----
1014 5:18 pmNNE 17 20----29.91- 77.7-----
1014 5:12 pm N 15 19----29.91- 77.5-----
1014 5:06 pm N 14 17----29.91- 77.4-----
1014 5:00 pmNNE 12 17----29.92-0.01 77.2-----
1014 4:54 pmNNE 15 18----29.91- 77.7-----
1014 4:48 pmNNE 16 20----29.91- 78.1-----
1014 4:42 pm N 17 20----29.91- 77.5-----
1014 4:36 pmNNE 17 21----29.91- 77.5-----
1014 4:30 pmNNE 17 21----29.91- 77.5-----
1014 4:24 pmNNE 16 19----29.92- 77.2-----
1014 4:18 pmNNE 17 20----29.92- 77.5-----
1014 4:12 pm N 16 19----29.92- 77.7-----
1014 4:06 pmNNE 17 20----29.92- 77.2-----
1014 4:00 pmNNE 18 21----29.92-0.03 77.7-----
1014 3:54 pmNNE 16 20----29.92- 77.5-----
1014 3:48 pmNNE 14 19----29.92- 77.7-----
1014 3:42 pmNNE 16 20----29.92- 77.5-----
1014 3:36 pmNNE 13 21----29.93- 77.5-----
1014 3:30 pmNNE 17 20----29.92- 77.7-----
1014 3:24 pmNNE 16 20----29.92- 77.7-----
1014 3:18 pmNNE 15 18----29.92- 77.2-----
1014 3:12 pmNNE 12 16----29.92- 76.5-----
1014 3:06 pmNNE 15 18----29.92- 77.0-----
1014 3:00 pmNNE 15 18----29.92-0.04 76.8-----
1014 2:54 pmNNE 16 19----29.92- 76.3-----
1014 2:48 pmNNE 14 17----29.92- 76.5-----
1014 2:42 pmNNE 15 18----29.92- 76.5-----
1014 2:36 pmNNE 15 19----29.92- 76.3-----
1014 2:30 pmNNE 14 19----29.92- 76.3-----
1014 2:24 pm N 15 20----29.92- 76.3-----
1014 2:18 pmNNE 16 20----29.93- 76.3-----
1014 2:12 pmNNE 13 19----29.93- 75.9-----
1014 2:06 pmNNE 12 20----29.93- 75.4-----
1014 2:00 pmNNE 13 18----29.93-0.03 76.1-----
1014 1:54 pm N 14 19----29.93- 75.9-----
1014 1:48 pm N 6 10----29.94- 73.9-----
1014 1:42 pm NW 4 11----29.94- 74.3-----
1014 1:36 pmNNW 6 11----29.94- 73.6-----
1014 1:30 pmNNW 6 8----29.94- 72.7-----
1014 1:24 pmWNW 5 7----29.94- 73.4-----
1014 1:18 pm NW 5 10----29.94- 73.0-----
1014 1:12 pmWNW 7 10----29.94- 72.7-----
1014 1:06 pmWNW 2 5----29.95- 73.2-----
1014 1:00 pmWNW 3 6----29.95+0.00 72.5-----
101412:54 pmNNW 5 9----29.95- 72.0-----
101412:48 pmWNW 4 5----29.95- 71.4-----
101412:42 pmWNW 3 4----29.95- 70.5-----
101412:36 pmWNW 3 4----29.96- 70.2-----
101412:30 pmWNW 3 6----29.96- 69.3-----
101412:24 pmWNW 4 6----29.96- 68.5-----
101412:18 pmWNW 5 7----29.96- 68.2-----
101412:12 pmWNW 6 7----29.96- 68.2-----
101412:06 pmNNW 7 8----29.96- 68.4-----
101412:00 pm NW 4 6----29.96+0.02 66.7-----
101411:54 amWNW 6 7----29.96- 65.5-----
101411:48 amWNW 6 8----29.96- 65.5-----
101411:42 am NW 6 8----29.96- 65.7-----
101411:36 am NW 7 10----29.96- 65.3-----
101411:30 am NW 6 9----29.96- 65.5-----
101411:24 am NW 6 10----29.96- 65.3-----
101411:18 am NW 5 9----29.96- 65.3-----
101411:12 am NW 7 9----29.96- 64.9-----
101411:06 am NW 5 10----29.96- 65.1-----
101411:00 am NW 7 12----29.96+0.05 64.9-----
101410:54 am NW 8 12----29.96- 64.9-----
101410:48 amWNW 6 10----29.96- 64.2-----
101410:42 am NW 8 10----29.96- 64.2-----
101410:36 amWNW 9 11----29.96- 63.5-----
101410:30 amWNW 8 12----29.96- 63.3-----
101410:24 am NW 8 10----29.96- 63.5-----
101410:18 am NW 6 10----29.96- 63.7-----
101410:12 amWNW 7 9----29.96- 63.0-----
101410:06 amWNW 6 9----29.95- 62.6-----
101410:00 amWNW 7 8----29.95+0.07 62.1-----
1014 9:54 am NW 5 9----29.95- 61.7-----
1014 9:48 am NW 8 11----29.95- 60.8-----
1014 9:42 am NW 8 11----29.95- 60.4-----
1014 9:36 am NW 9 13----29.95- 60.8-----
1014 9:30 am NW 8 12----29.95- 60.4-----
1014 9:24 am NW 9 12----29.94- 60.1-----
1014 9:18 am NW 8 13----29.94- 59.9-----
1014 9:12 am NW 10 14----29.94- 59.5-----
1014 9:06 am NW 11 14----29.93- 59.7-----
1014 9:00 am NW 11 14----29.93+0.07 59.5-----
1014 8:54 am NW 9 13----29.93- 59.5-----
1014 8:48 am NW 9 12----29.93- 59.9-----
1014 8:42 amWNW 11 13----29.92- 58.8-----
1014 8:36 amWNW 8 11----29.92- 59.0-----
1014 8:30 am NW 7 10----29.92- 59.2-----
1014 8:24 am NW 7 11----29.92- 58.6-----
1014 8:18 am NW 7 9----29.92- 58.6-----
1014 8:12 am NW 6 9----29.91- 58.5-----
1014 8:06 am NW 6 8----29.91- 57.7-----
1014 8:00 amWNW 8 10----29.91+0.06 57.7-----
1014 7:54 amWNW 6 8----29.91- 57.4-----
1014 7:48 amWNW 6 10----29.90- 57.2-----
1014 7:42 amWNW 7 9----29.90- 57.0-----
1014 7:36 amWNW 6 8----29.90- 56.8-----
1014 7:30 am W 8 10----29.89- 56.5-----
1014 7:24 amWNW 9 11----29.89- 56.3-----
1014 7:18 amWNW 9 10----29.89- 56.5-----
1014 7:12 amWNW 9 11----29.88- 56.5-----
1014 7:06 am NW 9 11----29.88- 57.2-----
1014 7:00 amWNW 9 11----29.88+0.04 57.6-----
1014 6:54 am NW 9 14----29.88- 57.6-----

Description of Measurements

Links which are specific to this station are listed below:

Real Time Data in tabular form for the last forty-five days.

Historical Data & Climatic Summaries for quality controlled data for the current month, previous months, and previous years.